sat.trackr.live / text

‹ back to catalog

COSMOS 2475 (743)

NORAD 37869 · 2011-064C

PAYLOAD ACTIVE UNKNOWN

§ Identity

Operator
Country
CIS
Launch date
2011-11-04
Launch site
TYMSC
Launch vehicle
Mass (kg)
RCS (m²)
6.31

Purposes: nav

External: N2YO · Heavens-Above · Gunter

§ Orbital elements

Epoch: 2026-05-23T02:54:15.148224Z

Period
675.73 min
Inclination
65.2702°
Eccentricity
0.0026437
Mean motion
2.13101675 rev/d
Perigee alt
19,062.5 km
Apogee alt
19,197.3 km
Semi-major
25,508.1 km
B*
0.0000e+0
RAAN
73.8176°
Arg perigee
254.8346°
Mean anomaly
255.4190°
Rev number
11,323

§ Raw data

COSMOS 2475 (743)1 37869U 11064C   26143.12100866 -.00000019  00000+0  00000+0 0  99942 37869  65.2702  73.8176 0026437 254.8346 255.4190  2.13101675113235

JSON: /api/v1/satellites/37869 · /tle

For live sub-satellite position, see the globe view (requires WebGL).

§ Visibility from observer

Set your observer location to see the next 7 days of passes ≥ 10°. The values pass through the URL so the page stays shareable.

No JS? Fill the form by hand. The geolocation button needs JavaScript.